Location: Powder Track
(41.8531°N, 72.3584°W)
Time: 22:32:01
(UTC+00:00)

X-37B - Pass Details

Date: 23 June 2021
Orbit: 383 x 392 km, 45.0° (Epoch: 01 July)

Event Time Altitude Azimuth Distance (km) Brightness Sun altitude
Rises 02:02:13 0° 230° (SW) 2,246 4.5 -13.9°
Reaches altitude 10° 02:04:20 10° 223° (SW) 1,395 3.3 -14.1°
Maximum altitude 02:07:19 40° 152° (SSE) 574 0.9 -14.5°
Enters shadow 02:08:38 26° 99° (E) 805 1.8 -14.6°
